Content
SEND FEEDBACK

Daily
Averages
Monthly
Summary
Canada

MONTREAL, QUEBEC


Home > North America > Canada > Quebec
Elevation: 118 feet     Latitude: 45 28N     Longitude: 073 45W

WEATHER
 
SELECT A DAY
Number of Records: 198,587;   Date Range: 1/1/95 - 8/31/14
 
SHARE

PRINT THIS DATA

[ ← Previous Day ]
WEATHER ALMANAC - MARCH 25, 2013
[ Next Day → ]
[ °C ]   °F
Weather ElementAverageHighLow
Temperature35.5 °F42.8 °F (3:25 pm)26 °F (2:00 am)
Dewpoint26.2 °F30.2 °F (9:00 am)21.2 °F (2:00 am)
Humidity68.8 %93 % (1:00 am)47 % (2:00 pm)
Barometer29.75 in29.84 in (1:00 am)29.67 in (5:00 pm)
Wind Speed12.1 mph23 mph (10:00 pm)
Wind Gust29.9 mph (9:41 pm)
Weather ElementAverage
Visibility15 mi
Wind DirectionENE (72.8 °)

Weather ElementTotal
Precipitation---
Heating Degree Days30.6 (Base 65)
Averaged from 29 records on March 25, 2013
WEATHER CONDITIONS BREAKOUT
WIND DIRECTION BREAKOUT
WEATHER BY HOUR - MARCH 25, 2013
[ °C ]   °F
Local TimeTemperatureDewpointHumidityBarometerVisibilityWind DirectionWind SpeedGust SpeedPrecipitationEventsConditions
1:00 AM26.6 °F24.8 °F93 %29.84 in15.0 miWSW (250°)3.5 mphPartly Cloudy
2:00 AM26.0 °F22.0 °F77 %29.83 in15.0 miWest (280°)4.6 mphPartly Cloudy
2:00 AM26.6 °F21.2 °F80 %29.83 in15.0 miWest (280°)4.6 mphScattered Clouds
3:00 AM28.4 °F23.0 °F80 %29.82 in15.0 miNorth (360°)2.3 mphPartly Cloudy
4:00 AM26.6 °F21.2 °F80 %29.81 in15.0 miNNE (20°)6.9 mphPartly Cloudy
5:00 AM28.4 °F24.8 °F86 %29.81 in15.0 miNNE (20°)8.1 mphScattered Clouds
6:00 AM28.4 °F26.6 °F93 %29.80 in15.0 miNNE (20°)10.4 mphMostly Cloudy
7:00 AM32.0 °F26.6 °F80 %29.79 in15.0 miNNE (30°)10.4 mphMostly Cloudy
8:00 AM33.0 °F29.0 °F77 %29.80 in15.0 miNNE (20°)8.1 mphMostly Cloudy
8:00 AM33.8 °F28.4 °F81 %29.80 in15.0 miNNE (20°)8.1 mphMostly Cloudy
9:00 AM33.8 °F30.2 °F87 %29.80 in15.0 miNE (40°)12.7 mphOvercast
10:00 AM35.6 °F30.2 °F81 %29.79 in15.0 miNNE (30°)12.7 mphOvercast
11:00 AM35.6 °F30.2 °F81 %29.78 in15.0 miNE (40°)11.5 mphOvercast
12:00 PM39.2 °F28.4 °F65 %29.75 in15.0 miENE (70°)8.1 mphMostly Cloudy
1:00 PM39.2 °F28.4 °F65 %29.73 in15.0 miNE (40°)15.0 mphMostly Cloudy
2:00 PM41.0 °F28.0 °F47 %29.71 in15.0 miNE (50°)15.0 mphScattered Clouds
2:00 PM41.0 °F26.6 °F57 %29.71 in15.0 miNE (50°)13.8 mph21.9 mphScattered Clouds
3:00 PM41.0 °F28.4 °F61 %29.69 in15.0 miENE (60°)13.8 mphMostly Cloudy
3:25 PM42.8 °F26.6 °F53 %29.68 in15.0 miNNE (30°)16.1 mphMostly Cloudy
4:00 PM41.0 °F26.6 °F57 %29.68 in15.0 miNE (50°)18.4 mphMostly Cloudy
5:00 PM42.8 °F24.8 °F49 %29.67 in15.0 miNE (50°)16.1 mphScattered Clouds
6:00 PM42.8 °F24.8 °F49 %29.67 in15.0 miNE (50°)17.3 mphPartly Cloudy
7:00 PM41.0 °F24.8 °F53 %29.68 in15.0 miNE (50°)12.7 mphScattered Clouds
8:00 PM40.0 °F27.0 °F47 %29.70 in15.0 miNNE (20°)10.4 mphMostly Cloudy
8:00 PM39.2 °F26.6 °F61 %29.70 in15.0 miNNE (30°)11.5 mphMostly Cloudy
9:00 PM37.4 °F24.8 °F60 %29.73 in15.0 miNE (40°)18.4 mphOvercast
9:41 PM35.6 °F24.8 °F65 %29.74 in15.0 miNE (40°)19.6 mph29.9 mphOvercast
10:00 PM35.6 °F24.8 °F65 %29.74 in15.0 miNE (40°)23.0 mphMostly Cloudy
11:00 PM35.6 °F24.8 °F65 %29.73 in15.0 miNNE (30°)17.3 mph23.0 mphMostly Cloudy
Hourly data recorded from CYUL, located miles away from Montreal, Quebec







STORIES FROM OUR PARTNERS